Home > Weather > Jeddah > Past weeks

Flag for Saudi Arabia Past Weather in Jeddah, Saudi Arabia — Yesterday and Last 2 Weeks

Now
86 °F

Sunny.


Feels Like: 99 °F
Forecast: 88 / 97 °F
Wind: No wind

Location: Jeddah King Abdul Aziz International Airport

Current Time: Aug 27, 2016 at 8:00:11 AM

Latest Report: Aug 27, 2016 at 7:00 AM


Visibility: 10 mi

Pressure: 29.68 "Hg

Humidity: 79%

Dew Point: 79 °F

Location of JeddahLocation

Past Weather in Jeddah — Graph

°F

Jeddah Temperature Yesterday

Maximum temperature yesterday: 97 °F (at 3:00 PM)
Minimum temperature yesterday: 86 °F (at 5:00 AM)
Average temperature yesterday: 91 °F

High & Low Weather Summary for the Past Weeks

 TemperatureHumidityPressure
High106 °F (Aug 21, 2:00 PM)79% (Aug 15, 4:00 AM)29.74 "Hg (Aug 15, 4:00 AM)
Low82 °F (Aug 19, 6:00 AM)19% (Aug 24, 1:00 PM)29.56 "Hg (Aug 24, 2:00 PM)
Average92 °F51%29.65 "Hg
* Reported Aug 12 6:00 AM — Aug 27 6:00 AM, Jeddah, Weather by CustomWeather, © 2016

Note: Actual official high and low records may vary slightly from our data, if they occured in-between our weather recording intervals... More about our weather records

Advertising

Jeddah Weather History for the Previous 24 Hours

Scroll right to see more
 ConditionsComfort  
Time TempWeatherWind HumidityBarometerVisibility
6:00 AM
Sat, Aug 27
86 °FClear.No wind79%29.68 "Hg10 mi
5:00 AM86 °FClear.No wind79%29.68 "Hg10 mi
4:00 AM86 °FClear.No wind79%29.65 "Hg10 mi
3:00 AM86 °FClear.No wind79%29.62 "Hg10 mi
2:00 AM86 °FClear.5 mph75%29.65 "Hg10 mi
1:00 AM88 °FClear.9 mph70%29.65 "Hg10 mi
12:00 AM88 °FClear.7 mph70%29.65 "Hg10 mi
11:00 PM
Fri, Aug 26
88 °FClear.12 mph70%29.68 "Hg10 mi
10:00 PM90 °FClear.6 mph67%29.68 "Hg10 mi
9:00 PM90 °FClear.7 mph67%29.65 "Hg10 mi
8:00 PM91 °FClear.9 mph63%29.65 "Hg10 mi
7:00 PM91 °FClear.10 mph59%29.65 "Hg10 mi
6:00 PM93 °FPassing clouds.12 mph56%29.62 "HgN/A
5:00 PM95 °FPassing clouds.12 mph50%29.62 "HgN/A
4:00 PM97 °FSunny.14 mph44%29.62 "Hg10 mi
3:00 PM97 °FSunny.12 mph44%29.62 "Hg10 mi
2:00 PM95 °FPassing clouds.15 mph39%29.65 "HgN/A
1:00 PM95 °FPassing clouds.17 mph39%29.65 "HgN/A
12:00 PM95 °FScattered clouds.8 mph39%29.68 "HgN/A
11:00 AM93 °FScattered clouds.8 mph53%29.71 "HgN/A
10:00 AM93 °FScattered clouds.8 mph53%29.71 "HgN/A
9:00 AM90 °FScattered clouds.5 mph67%29.71 "HgN/A
8:00 AM88 °FScattered clouds.6 mph75%29.68 "HgN/A
Weather by CustomWeather, © 2016

See weather overviewHow to use our weather pages